1507176001.15,47485,12.44,73228.8,-2.55,-4.93,-4.49,0,*5F
1507176002.39,47486,12.44,73236.3,-2.55,-5.03,-4.49,0,*54
1507176003.63,47487,12.44,73242.0,-2.55,-4.93,-4.49,0,*5D
1507176004.87,47488,12.5,73248.5,-2.55,-4.69,-4.33,0,*5A
1507176006.11,47489,12.5,73254.0,-2.55,-4.85,-4.49,0,*54
1507176007.34,47490,12.44,73240.3,-2.55,-4.93,-4.45,0,*57
1507176008.58,47491,12.44,73242.3,-2.55,-4.85,-4.37,0,*54
1507176009.82,47492,12.44,73234.3,-2.55,-4.81,-4.45,0,*56
1507176011.06,47493,12.5,73242.5,-2.55,-4.93,-4.57,0,*57
1507176012.25,47494,12.44,73242.8,-2.57,-4.99,-4.61,0,*5D
1507176013.47,47495,12.5,73242.8,-2.57,-5.03,-4.61,0,*5E
1507176014.72,47496,12.44,73248.5,-2.59,-5.03,-4.53,0,*52
1507176015.94,47497,12.5,73250.5,-2.57,-4.85,-4.29,0,*5F
1507176017.18,47498,12.5,73262.5,-2.59,-4.81,-4.33,0,*51
1507176018.39,47499,12.44,73254.3,-2.57,-4.77,-4.29,0,*5C
1507176019.6,47500,12.44,73246.5,-2.57,-4.73,-4.25,0,*55
1507176020.8,47501,12.5,73248.5,-2.57,-4.61,-4.25,0,*57
1507176022.01,47502,12.44,73242.8,-2.59,-4.65,-4.17,0,*5F
1507176023.21,47503,12.44,73230.0,-2.57,-4.65,-4.25,0,*51
1507176024.43,47504,12.5,73226.0,-2.59,-4.65,-4.33,0,*5F
1507176025.62,47505,12.44,73234.0,-2.57,-4.53,-4.29,0,*5E
1507176026.84,47506,12.44,73244.3,-2.59,-4.57,-4.33,0,*5C
1507176028.04,47507,12.44,73248.5,-2.57,-4.61,-4.37,0,*52
1507176029.23,47508,12.44,73254.0,-2.57,-4.53,-4.41,0,*5D
1507176030.42,47509,12.44,73252.3,-2.57,-4.53,-4.41,0,*5C
1507176031.61,47510,12.5,73252.8,-2.57,-4.53,-4.53,0,*57
1507176032.81,47511,12.44,73256.8,-2.57,-4.61,-4.53,0,*57
1507176034.05,47512,12.5,73260.8,-2.59,-4.77,-4.65,0,*58
1507176035.29,47513,12.44,73250.5,-2.57,-4.89,-4.77,0,*55
1507176036.53,47514,12.5,73250.0,-2.57,-4.89,-4.77,0,*52
1507176037.81,47515,12.5,73236.8,-2.59,-5.03,-4.89,0,*5F
1507176039.02,47516,12.44,73238.8,-2.57,-4.99,-4.85,0,*5C
1507176040.23,47517,12.5,73238.8,-2.57,-4.99,-4.73,0,*54
1507176041.48,47518,12.5,73240.5,-2.57,-4.89,-4.73,0,*5A
1507176042.75,47519,12.44,73236.3,-2.59,-5.03,-4.77,0,*52
1507176043.99,47520,12.44,73226.5,-2.57,-5.11,-4.77,0,*55
1507176045.24,47521,12.5,73230.3,-2.59,-5.19,-4.65,0,*51
1507176046.46,47522,12.44,73230.0,-2.57,-5.19,-4.61,0,*58
1507176047.68,47523,12.44,73228.5,-2.57,-5.43,-4.69,0,*5E
1507176048.9,47524,12.44,73236.0,-2.59,-5.47,-4.65,0,*5F
1507176050.09,47525,12.5,73238.8,-2.57,-5.43,-4.61,0,*50
1507176051.32,47526,12.44,73222.5,-2.57,-5.31,-4.49,0,*5C
1507176052.54,47527,12.5,73222.0,-2.59,-5.35,-4.41,0,*5F
1507176053.76,47528,12.5,73208.3,-2.57,-5.27,-4.29,0,*53
1507176054.98,47529,12.44,73190.3,-2.57,-5.31,-4.25,0,*59
1507176056.18,47530,12.5,73200.8,-2.57,-5.51,-4.37,0,*54
1507176057.41,47531,12.44,73198.0,-2.57,-5.31,-4.21,0,*54
1507176058.63,47532,12.5,73194.5,-2.57,-5.31,-4.25,0,*53
1507176059.85,47533,12.44,73196.8,-2.57,-5.27,-4.25,0,*55
1507176061.07,47534,12.44,73214.0,-2.57,-5.19,-4.21,0,*5B
1507176062.29,47535,12.5,73218.3,-2.57,-5.19,-4.13,0,*5B
1507176063.54,47536,12.5,73214.0,-2.59,-5.19,-4.25,0,*53
1507176064.76,47537,12.44,73222.5,-2.57,-5.15,-4.25,0,*50
1507176066.01,47538,12.5,73226.5,-2.59,-5.07,-4.17,0,*53
1507176067.26,47539,12.5,73222.3,-2.59,-5.07,-4.25,0,*53
1507176068.51,47540,12.5,73234.5,-2.59,-5.03,-4.17,0,*58
1507176069.75,47541,12.44,73232.5,-2.59,-5.03,-4.17,0,*59
1507176071.0,47542,12.5,73222.3,-2.59,-5.07,-4.41,0,*5D
1507176072.25,47543,12.5,73220.8,-2.59,-5.07,-4.33,0,*59
1507176073.48,47544,12.44,73202.0,-2.57,-5.07,-4.33,0,*50
1507176074.7,47545,12.44,73214.8,-2.57,-5.03,-4.37,0,*51
1507176075.95,47546,12.5,73216.5,-2.59,-5.03,-4.41,0,*5D
1507176077.2,47547,12.5,73234.3,-2.59,-5.07,-4.33,0,*5D
1507176078.45,47548,12.5,73238.5,-2.59,-5.03,-4.29,0,*5D
1507176079.69,47549,12.5,73238.5,-2.59,-4.93,-4.33,0,*5F
1507176080.93,47550,12.44,73232.3,-2.59,-4.93,-4.33,0,*57
1507176082.18,47551,12.5,73234.0,-2.59,-4.89,-4.25,0,*5A
1507176083.42,47552,12.5,73224.8,-2.59,-4.89,-4.33,0,*5E
1507176084.63,47553,12.5,73218.0,-2.57,-4.77,-4.25,0,*57
1507176085.87,47554,12.5,73214.3,-2.59,-4.81,-4.17,0,*56
1507176087.1,47555,12.5,73228.5,-2.59,-4.93,-4.45,0,*53
1507176088.34,47556,12.5,73246.3,-2.59,-4.93,-4.45,0,*50
1507176089.58,47557,12.5,73246.5,-2.59,-4.93,-4.45,0,*51
1507176090.79,47558,12.5,73236.5,-2.61,-4.89,-4.45,0,*5E
1507176092.03,47559,12.5,73230.5,-2.59,-4.89,-4.45,0,*54
1507176093.28,47560,12.5,73228.5,-2.59,-4.81,-4.41,0,*52
1507176094.52,47561,12.5,73232.0,-2.59,-4.89,-4.45,0,*5F
1507176095.76,47562,12.5,73218.3,-2.59,-4.81,-4.41,0,*50
1507176096.98,47563,12.5,73212.5,-2.61,-4.77,-4.41,0,*53
1507176098.18,47564,12.5,73210.8,-2.61,-4.77,-4.45,0,*50
1507176099.43,47565,12.5,73236.5,-2.59,-4.89,-4.53,0,*5C
1507176100.65,47566,12.5,73238.0,-2.61,-4.77,-4.41,0,*56
1507176101.86,47567,12.5,73238.8,-2.61,-4.77,-4.41,0,*57
1507176103.1,47568,12.5,73234.0,-2.63,-4.85,-4.49,0,*5F
1507176104.3,47569,12.5,73232.5,-2.61,-4.65,-4.29,0,*54
1507176105.49,47570,12.5,73224.8,-2.61,-4.53,-4.25,0,*55
1507176106.69,47571,12.5,73234.5,-2.61,-4.61,-4.29,0,*59
1507176107.92,47572,12.5,73252.3,-2.63,-4.61,-4.29,0,*58
1507176109.11,47573,12.5,73250.8,-2.61,-4.57,-4.33,0,*55
1507176110.32,47574,12.5,73248.3,-2.61,-4.69,-4.45,0,*5E
1507176111.52,47575,12.5,73252.8,-2.61,-4.65,-4.53,0,*54
1507176112.72,47576,12.5,73250.0,-2.61,-4.57,-4.41,0,*55
1507176113.92,47577,12.5,73254.3,-2.61,-4.41,-4.25,0,*51
1507176115.11,47578,12.5,73254.8,-2.61,-4.41,-4.25,0,*5E
1507176116.31,47579,12.5,73248.5,-2.61,-4.41,-4.29,0,*53
1507176117.5,47580,12.5,73246.8,-2.61,-4.45,-4.33,0,*5A
1507176118.72,47581,12.5,73242.8,-2.63,-4.57,-4.45,0,*5B
1507176119.94,47582,12.44,73234.3,-2.63,-4.57,-4.45,0,*58
1507176121.14,47583,12.5,73236.8,-2.61,-4.41,-4.33,0,*5D
1507176122.35,47584,12.5,73238.8,-2.63,-4.45,-4.45,0,*5D
1507176123.54,47585,12.5,73236.8,-2.61,-4.45,-4.41,0,*5A
1507176124.75,47586,12.5,73238.5,-2.63,-4.45,-4.45,0,*5F
1507176125.95,47587,12.5,73238.5,-2.61,-4.29,-4.29,0,*5C
1507176127.15,47588,12.5,73222.0,-2.61,-4.25,-4.33,0,*54
1507176128.36,47589,12.5,73216.0,-2.59,-4.45,-4.41,0,*5D
1507176129.56,47590,12.5,73212.0,-2.61,-4.41,-4.41,0,*5A
1507176130.75,47591,12.5,73214.0,-2.61,-4.29,-4.33,0,*50
1507176131.95,47592,12.5,73222.3,-2.61,-4.29,-4.29,0,*58
1507176133.15,47593,12.5,73230.3,-2.61,-4.25,-4.33,0,*5E
1507176134.35,47594,12.5,73214.5,-2.61,-4.53,-4.53,0,*5E
1507176135.62,47595,12.5,73230.0,-2.63,-4.85,-4.85,0,*5D
1507176136.82,47596,12.5,73224.3,-2.61,-4.57,-4.57,0,*5C
1507176138.01,47597,12.5,73226.8,-2.61,-4.45,-4.53,0,*5A
1507176139.21,47598,12.44,73222.5,-2.61,-4.41,-4.53,0,*51
1507176140.43,47599,12.5,73226.0,-2.63,-4.37,-4.49,0,*58
1507176141.65,47600,12.5,73232.8,-2.63,-4.49,-4.57,0,*5D
1507176142.87,47601,12.5,73254.8,-2.63,-4.49,-4.57,0,*5C
1507176144.11,47602,12.5,73246.3,-2.61,-4.69,-4.77,0,*5D
1507176145.38,47603,12.5,73210.5,-2.63,-4.69,-4.81,0,*57
1507176146.65,47604,12.5,73196.3,-2.63,-4.69,-4.85,0,*54
1507176147.91,47605,12.5,73196.5,-2.63,-4.69,-4.81,0,*51
1507176149.15,47606,12.5,73214.8,-2.61,-4.85,-4.93,0,*51
1507176150.39,47607,12.5,73218.8,-2.63,-4.93,-4.99,0,*5F
1507176151.66,47608,12.44,73216.0,-2.63,-4.69,-4.93,0,*5F
1507176152.92,47609,12.5,73222.3,-2.63,-4.73,-4.93,0,*55
1507176154.16,47610,12.5,73226.3,-2.63,-4.81,-4.99,0,*5A
1507176155.44,47611,12.5,73226.5,-2.63,-4.73,-4.85,0,*5B
1507176156.7,47612,12.5,73220.3,-2.63,-4.69,-4.93,0,*54
1507176157.94,47613,12.5,73226.8,-2.65,-4.69,-4.85,0,*54
1507176159.16,47614,12.44,73214.5,-2.65,-4.61,-4.85,0,*5B
1507176160.37,47615,12.5,73208.5,-2.65,-4.85,-4.99,0,*5D
1507176161.62,47616,12.5,73230.3,-2.65,-4.93,-5.11,0,*58
1507176162.84,47617,12.5,73220.8,-2.65,-4.99,-5.23,0,*52
1507176164.11,47618,12.44,73222.8,-2.67,-4.85,-5.11,0,*53
1507176165.33,47619,12.5,73216.0,-2.65,-4.99,-5.27,0,*58
1507176166.6,47620,12.44,73208.5,-2.67,-5.11,-5.31,0,*56
1507176167.84,47621,12.5,73204.0,-2.67,-5.11,-5.39,0,*5F
1507176169.13,47622,12.5,73206.8,-2.67,-5.03,-5.31,0,*57
1507176170.4,47623,12.5,73198.5,-2.67,-5.03,-5.31,0,*56
1507176171.63,47624,12.5,73174.0,-2.65,-5.07,-5.47,0,*56
1507176172.9,47625,12.44,73176.0,-2.67,-5.15,-5.65,0,*56
1507176174.18,47626,12.5,73188.3,-2.67,-5.15,-5.69,0,*59
1507176175.44,47627,12.44,73210.5,-2.69,-5.15,-5.81,0,*50
1507176176.69,47628,12.5,73228.3,-2.69,-5.27,-5.89,0,*56
1507176177.95,47629,12.44,73228.8,-2.69,-5.11,-5.89,0,*52
1507176179.2,47630,12.5,73220.5,-2.69,-5.27,-6.19,0,*55
1507176180.45,47631,12.44,73228.5,-2.73,-5.23,-6.23,0,*52
1507176181.67,47632,12.44,73212.8,-2.73,-5.23,-6.39,0,*5A
1507176182.9,47633,12.44,73202.5,-2.69,-5.27,-6.59,0,*52
1507176184.11,47634,12.5,73202.0,-2.73,-5.43,-6.93,0,*5A
1507176185.32,47635,12.44,73210.5,-2.69,-5.35,-7.15,0,*5E
1507176186.57,47636,12.5,73210.0,-2.69,-5.31,-7.35,0,*5B
1507176187.82,47637,12.5,73210.5,-2.73,-5.31,-7.57,0,*55
1507176189.02,47638,12.5,73208.0,-2.73,-5.35,-7.83,0,*57
1507176190.24,47639,12.44,73216.0,-2.73,-5.43,-8.11,0,*53
1507176191.46,47640,12.5,73208.5,-2.73,-5.43,-8.51,0,*59
1507176192.7,47641,12.5,73208.3,-2.73,-5.81,-9.15,0,*57
1507176193.94,47642,12.5,73210.0,-2.75,-5.61,-9.31,0,*5A
1507176195.22,47643,12.5,73216.8,-2.75,-5.61,-9.83,0,*52
1507176196.48,47644,12.5,73208.0,-2.75,-5.69,-10.27,0,*6B
1507176197.77,47645,12.5,73214.5,-2.77,-5.65,-10.75,0,*63
1507176199.02,47646,12.5,73212.5,-2.75,-5.81,-11.23,0,*6A
1507176200.3,47647,12.5,73216.5,-2.77,-5.85,-11.85,0,*61
1507176201.56,47648,12.5,73222.0,-2.77,-5.89,-12.39,0,*66
1507176202.79,47649,12.5,73218.8,-2.77,-6.09,-13.23,0,*66
1507176204.06,47650,12.5,73208.3,-2.77,-6.19,-13.79,0,*60
1507176205.31,47651,12.44,73202.3,-2.77,-6.55,-14.51,0,*64
1507176206.57,47652,12.44,73200.8,-2.77,-6.81,-14.97,0,*64
1507176207.8,47653,12.5,73210.5,-2.77,-7.23,-15.71,0,*65
1507176209.08,47654,12.5,73216.3,-2.75,-7.65,-16.31,0,*65
1507176210.34,47655,12.5,73218.5,-2.77,-8.37,-17.03,0,*6E
1507176211.6,47656,12.5,73226.0,-2.75,-9.01,-17.55,0,*68
1507176212.83,47657,12.5,73228.3,-2.77,-9.67,-18.07,0,*63
1507176214.1,47658,12.5,73232.8,-2.75,-10.23,-18.31,0,*53
1507176215.32,47659,12.5,73246.5,-2.77,-10.85,-18.49,0,*53
1507176216.6,47660,12.5,73244.0,-2.75,-11.51,-18.59,0,*52
1507176217.84,47661,12.5,73242.8,-2.77,-12.29,-18.73,0,*55
1507176219.09,47662,12.5,73236.0,-2.77,-12.83,-18.69,0,*5D
1507176220.34,47663,12.44,73232.3,-2.77,-13.43,-18.55,0,*5E
1507176221.57,47664,12.5,73242.3,-2.77,-13.93,-18.41,0,*51
1507176222.82,47665,12.44,73238.0,-2.77,-14.69,-18.55,0,*57
1507176224.05,47666,12.5,73234.3,-2.77,-15.15,-18.21,0,*5D
1507176225.31,47667,12.5,73220.3,-2.81,-15.43,-17.83,0,*51
1507176226.56,47668,12.5,73212.5,-2.81,-15.71,-17.41,0,*51
1507176227.82,47669,12.5,73204.0,-2.81,-16.17,-17.35,0,*50
1507176229.05,47670,12.5,73192.8,-2.81,-16.37,-16.97,0,*53
1507176230.29,47671,12.5,73198.8,-2.81,-16.59,-16.59,0,*58
1507176231.55,47672,12.5,73194.5,-2.81,-16.59,-16.09,0,*5E
1507176232.79,47673,12.5,73186.8,-2.79,-16.79,-15.89,0,*51
1507176234.02,47674,12.5,73174.3,-2.81,-16.97,-15.63,0,*55
1507176235.3,47675,12.5,73108.3,-2.81,-17.21,-15.57,0,*5F
1507176236.54,47676,12.5,73134.0,-2.83,-17.25,-15.25,0,*5F
1507176237.77,47677,12.5,73172.5,-2.83,-17.03,-15.07,0,*5A
1507176239.0,47678,12.5,73192.3,-2.83,-16.83,-14.75,0,*58
1507176240.23,47679,12.44,73176.0,-2.83,-16.69,-14.33,0,*5F
1507176241.44,47680,12.44,73184.0,-2.83,-16.41,-14.19,0,*5B
1507176242.7,47681,12.44,73188.5,-2.85,-16.13,-14.19,0,*5B
1507176243.97,47682,12.5,73170.8,-2.85,-16.13,-14.23,0,*51
1507176245.2,47683,12.5,73168.5,-2.85,-15.95,-14.33,0,*5C
1507176246.43,47684,12.5,73190.3,-2.83,-15.81,-14.37,0,*5C
1507176247.66,47685,12.5,73196.5,-2.83,-15.63,-14.51,0,*51
1507176248.89,47686,12.5,73194.8,-2.83,-15.63,-14.79,0,*58
1507176250.16,47687,12.5,73200.5,-2.85,-15.39,-15.11,0,*5F
1507176251.37,47688,12.5,73192.5,-2.83,-15.25,-15.49,0,*56
1507176252.58,47689,12.44,73202.5,-2.83,-15.11,-15.75,0,*5F
1507176253.83,47690,12.44,73206.3,-2.85,-15.21,-16.41,0,*56
1507176255.08,47691,12.5,73210.0,-2.83,-15.01,-16.69,0,*59
1507176256.36,47692,12.5,73190.0,-2.85,-14.93,-17.17,0,*5E
1507176257.61,47693,12.44,73174.0,-2.85,-14.93,-17.73,0,*5D
1507176258.83,47694,12.5,73184.5,-2.83,-15.01,-18.07,0,*5A
1507176260.07,47695,12.44,73174.5,-2.85,-15.25,-18.73,0,*58
1507176261.32,47696,12.5,73206.5,-2.85,-15.35,-18.83,0,*55
1507176262.55,47697,12.5,73196.8,-2.87,-15.39,-19.03,0,*53
1507176263.81,47698,12.5,73200.0,-2.85,-15.67,-19.27,0,*53
1507176265.08,47699,12.5,73204.0,-2.85,-15.95,-19.57,0,*58
1507176266.34,47700,12.5,73214.0,-2.85,-16.41,-19.81,0,*58
1507176267.6,47701,12.5,73214.5,-2.85,-16.79,-19.85,0,*56
1507176268.84,47702,12.5,73220.5,-2.87,-17.17,-19.91,0,*5B
1507176270.1,47703,12.5,73262.5,-2.87,-17.59,-19.85,0,*55
1507176271.34,47704,12.5,73254.5,-2.87,-18.07,-19.85,0,*56
1507176272.62,47705,12.5,73236.8,-2.85,-18.35,-19.41,0,*5C
1507176273.86,47706,12.5,73238.8,-2.89,-18.69,-19.13,0,*5D
1507176275.12,47707,12.5,73230.5,-2.89,-19.13,-18.89,0,*52
1507176276.33,47708,12.44,73230.8,-2.87,-19.47,-18.69,0,*5C
1507176277.6,47709,12.5,73224.3,-2.89,-19.61,-18.07,0,*5F
1507176278.83,47710,12.5,73210.8,-2.89,-19.91,-17.73,0,*54
1507176280.06,47711,12.5,73204.5,-2.89,-20.25,-17.35,0,*52
1507176281.29,47712,12.44,73194.0,-2.89,-20.25,-16.59,0,*5A
1507176282.56,47713,12.5,73206.3,-2.89,-20.25,-16.17,0,*51
1507176283.81,47714,12.5,73226.8,-2.89,-20.19,-15.71,0,*5A
1507176285.06,47715,12.5,73230.0,-2.89,-20.19,-15.15,0,*59
1507176286.32,47716,12.44,73210.0,-2.89,-20.09,-14.93,0,*54
1507176287.57,47717,12.44,73210.3,-2.89,-20.05,-14.55,0,*53
1507176288.8,47718,12.5,73212.8,-2.89,-19.95,-14.37,0,*5B
1507176290.08,47719,12.5,73188.0,-2.89,-19.85,-14.05,0,*5A
1507176291.31,47720,12.5,73196.3,-2.87,-19.71,-13.79,0,*59
1507176292.57,47721,12.5,73204.8,-2.89,-19.41,-13.55,0,*5B
1507176293.82,47722,12.5,73206.3,-2.89,-19.03,-13.37,0,*5A
1507176295.05,47723,12.5,73206.3,-2.89,-18.65,-13.11,0,*5E
1507176296.26,47724,12.5,73218.8,-2.87,-18.25,-12.93,0,*58
1507176297.55,47725,12.5,73222.5,-2.89,-17.93,-12.83,0,*54
1507176298.76,47726,12.44,73212.8,-2.91,-17.69,-12.97,0,*5E
1507176300.0,47727,12.5,73216.3,-2.91,-17.25,-12.89,0,*58
1507176301.23,47728,12.44,73208.8,-2.91,-16.93,-13.01,0,*5A
1507176302.46,47729,12.5,73222.3,-2.91,-16.65,-13.15,0,*57
1507176303.69,47730,12.5,73226.0,-2.91,-16.31,-13.23,0,*5B
1507176304.94,47731,12.5,73216.3,-2.91,-16.09,-13.55,0,*50
1507176306.19,47732,12.5,73216.0,-2.89,-15.81,-13.65,0,*5A
1507176307.41,47733,12.5,73234.5,-2.89,-15.67,-13.93,0,*5A
1507176308.65,47734,12.5,73254.3,-2.91,-15.57,-14.15,0,*5E
1507176309.88,47735,12.5,73254.5,-2.91,-15.43,-14.33,0,*5E
1507176311.17,47736,12.5,73254.0,-2.89,-15.43,-14.79,0,*5A
1507176312.45,47737,12.5,73256.3,-2.89,-15.43,-14.97,0,*5B
1507176313.72,47738,12.44,73248.8,-2.89,-15.43,-15.25,0,*5C
1507176315.0,47739,12.5,73248.0,-2.89,-15.57,-15.43,0,*58
1507176316.22,47740,12.5,73244.8,-2.91,-15.75,-15.75,0,*5A
1507176317.46,47741,12.5,73244.5,-2.91,-15.89,-15.99,0,*5A
1507176318.72,47742,12.5,73236.5,-2.91,-16.23,-16.23,0,*58
1507176319.95,47743,12.44,73234.8,-2.91,-16.51,-16.45,0,*5C
1507176321.19,47744,12.5,73240.3,-2.91,-16.75,-16.51,0,*58
1507176322.41,47745,12.5,73248.5,-2.89,-16.89,-16.45,0,*56
1507176323.65,47746,12.5,73264.3,-2.91,-17.35,-16.51,0,*5F
1507176324.9,47747,12.5,73264.0,-2.91,-17.63,-16.51,0,*5D
1507176326.14,47748,12.5,73268.8,-2.95,-17.93,-16.37,0,*59
1507176327.37,47749,12.5,73270.8,-2.95,-18.11,-16.17,0,*5F
1507176328.59,47750,12.5,73268.8,-2.95,-18.41,-15.99,0,*57
1507176329.82,47751,12.44,73264.8,-2.95,-18.55,-15.63,0,*56
1507176331.08,47752,12.5,73270.3,-2.91,-18.59,-15.21,0,*5B
1507176332.34,47753,12.44,73246.0,-2.91,-18.59,-14.75,0,*5A
1507176333.57,47754,12.44,73224.0,-2.91,-18.45,-14.43,0,*55
1507176334.77,47755,12.5,73220.3,-2.91,-17.49,-13.47,0,*54
1507176336.01,47756,12.44,73206.3,-2.91,-16.89,-12.35,0,*5E
1507176337.28,47757,12.44,73222.0,-2.91,-17.21,-12.61,0,*5D
1507176338.54,47758,12.44,73208.5,-2.89,-17.35,-12.57,0,*5B
1507176339.77,47759,12.5,73212.5,-2.87,-17.49,-12.57,0,*5F
1507176341.01,47760,12.5,73208.0,-2.87,-17.45,-12.43,0,*5C
1507176342.28,47761,12.5,73224.8,-2.87,-17.07,-12.11,0,*5C
1507176343.53,47762,12.5,73212.3,-2.89,-16.75,-11.73,0,*52
1507176344.8,47763,12.5,73212.0,-2.87,-16.69,-11.67,0,*55
1507176346.03,47764,12.5,73230.8,-2.87,-16.59,-11.73,0,*54
1507176347.27,47765,12.5,73232.5,-2.87,-16.41,-11.59,0,*54
1507176348.53,47766,12.5,73242.0,-2.87,-16.31,-11.67,0,*5D
1507176349.82,47767,12.44,73232.8,-2.85,-16.09,-11.63,0,*51
1507176351.09,47768,12.5,73240.8,-2.85,-15.95,-11.67,0,*5C
1507176352.38,47769,12.5,73242.5,-2.85,-15.81,-11.63,0,*5C
1507176353.63,47770,12.5,73224.8,-2.85,-15.67,-11.67,0,*58
1507176354.86,47771,12.5,73220.5,-2.83,-15.63,-11.81,0,*53
1507176356.12,47772,12.5,73234.0,-2.85,-15.49,-11.81,0,*5E
1507176357.37,47773,12.44,73232.5,-2.83,-15.35,-11.81,0,*52
1507176358.57,47774,12.5,73238.3,-2.83,-15.49,-12.03,0,*57
1507176359.81,47775,12.5,73244.5,-2.85,-15.53,-12.21,0,*5B
1507176361.02,47776,12.5,73242.8,-2.83,-15.63,-12.25,0,*59
1507176362.25,47777,12.5,73236.8,-2.83,-15.63,-12.35,0,*59
1507176363.46,47778,12.44,73226.0,-2.83,-15.63,-12.47,0,*53
1507176364.66,47779,12.5,73226.5,-2.83,-15.67,-12.47,0,*56
1507176365.9,47780,12.5,73222.3,-2.85,-15.67,-12.47,0,*56
1507176367.1,47781,12.5,73218.5,-2.83,-15.67,-12.47,0,*51
1507176368.31,47782,12.5,73220.0,-2.83,-15.75,-12.39,0,*58
1507176369.54,47783,12.5,73224.8,-2.83,-15.81,-12.39,0,*52
1507176370.81,47784,12.5,73224.3,-2.85,-15.75,-12.35,0,*54
1507176372.07,47785,12.5,73220.8,-2.85,-15.67,-12.15,0,*54
1507176373.27,47786,12.5,73226.0,-2.83,-15.63,-12.03,0,*52
1507176374.51,47787,12.44,73224.3,-2.83,-15.49,-11.89,0,*5A
1507176375.76,47788,12.5,73226.0,-2.85,-15.63,-11.77,0,*5A
1507176377.02,47789,12.5,73224.0,-2.85,-15.53,-11.81,0,*51
1507176378.28,47790,12.5,73230.3,-2.85,-15.53,-11.51,0,*54
1507176379.49,47791,12.5,73234.0,-2.83,-15.49,-11.41,0,*59
1507176380.74,47792,12.44,73234.5,-2.85,-15.49,-11.33,0,*59
1507176381.98,47793,12.44,73240.3,-2.85,-15.25,-10.97,0,*5D
1507176383.26,47794,12.5,73246.0,-2.85,-15.01,-10.71,0,*54
1507176384.52,47795,12.5,73254.8,-2.85,-14.79,-10.49,0,*50
1507176385.73,47796,12.5,73254.8,-2.83,-14.37,-10.23,0,*53
1507176386.97,47797,12.5,73256.5,-2.85,-14.11,-10.09,0,*58
1507176388.24,47798,12.5,73254.8,-2.85,-13.79,-10.01,0,*56
1507176389.44,47799,12.5,73254.8,-2.83,-13.51,-9.97,0,*6C
1507176390.68,47800,12.5,73254.5,-2.85,-13.19,-9.97,0,*69
1507176391.9,47801,12.5,73246.5,-2.83,-12.89,-9.83,0,*63
1507176393.16,47802,12.5,73250.3,-2.85,-12.65,-9.89,0,*6E
1507176394.38,47803,12.5,73250.5,-2.85,-12.39,-9.89,0,*66
1507176395.63,47804,12.5,73258.8,-2.85,-12.21,-10.01,0,*50
1507176396.87,47805,12.5,73248.8,-2.85,-12.03,-10.01,0,*51
1507176398.11,47806,12.5,73242.5,-2.85,-12.03,-10.27,0,*56
1507176399.37,47807,12.5,73236.0,-2.85,-11.89,-10.23,0,*52
1507176400.67,47808,12.5,73236.0,-2.85,-11.77,-10.41,0,*58
1507176401.93,47809,12.5,73230.5,-2.85,-11.63,-10.49,0,*54
1507176403.19,47810,12.5,73244.8,-2.85,-11.63,-10.53,0,*57
1507176404.46,47811,12.5,73232.3,-2.85,-11.55,-10.53,0,*53
1507176405.72,47812,12.5,73228.5,-2.85,-11.55,-10.57,0,*54
1507176406.99,47813,12.5,73228.8,-2.85,-11.55,-10.57,0,*55
1507176408.22,47814,12.5,73220.5,-2.83,-11.55,-10.57,0,*54
1507176409.49,47815,12.5,73216.5,-2.85,-11.55,-10.57,0,*53
1507176410.75,47816,12.5,73214.5,-2.85,-11.63,-10.53,0,*51
1507176412.01,47817,12.5,73204.8,-2.85,-11.67,-10.49,0,*5F
1507176413.28,47818,12.5,73210.0,-2.87,-11.67,-10.41,0,*5A
1507176414.54,47819,12.5,73218.5,-2.89,-11.73,-10.31,0,*57
1507176415.78,47820,12.5,73232.3,-2.87,-11.67,-10.19,0,*5C
1507176417.03,47821,12.5,73246.8,-2.87,-11.67,-10.15,0,*51
1507176418.27,47822,12.5,73246.8,-2.87,-11.67,-10.01,0,*57
1507176419.5,47823,12.5,73248.5,-2.87,-11.55,-9.89,0,*6F
1507176420.75,47824,12.5,73254.8,-2.89,-11.59,-9.93,0,*61
1507176422.01,47825,12.44,73252.3,-2.89,-11.55,-9.89,0,*67
1507176423.22,47826,12.44,73246.8,-2.87,-11.45,-9.75,0,*68
1507176424.43,47827,12.44,73252.3,-2.87,-11.41,-9.79,0,*61
1507176425.68,47828,12.5,73258.0,-2.89,-11.37,-9.67,0,*6E
1507176426.93,47829,12.5,73248.8,-2.89,-11.37,-9.67,0,*6F
1507176428.14,47830,12.5,73250.5,-2.87,-11.41,-9.67,0,*68
1507176429.37,47831,12.5,73248.8,-2.89,-11.41,-9.67,0,*67
1507176430.63,47832,12.5,73242.3,-2.89,-11.59,-9.79,0,*62
1507176431.88,47833,12.5,73248.0,-2.89,-11.73,-9.89,0,*64
1507176433.13,47834,12.5,73250.0,-2.89,-11.81,-9.89,0,*6E
1507176434.38,47835,12.5,73246.3,-2.89,-11.85,-9.93,0,*60
1507176435.64,47836,12.5,73248.3,-2.89,-12.11,-10.05,0,*5A
1507176436.88,47837,12.5,73246.3,-2.89,-12.21,-10.05,0,*58
1507176438.12,47838,12.44,73246.8,-2.89,-12.29,-10.15,0,*5E
1507176439.36,47839,12.5,73234.8,-2.89,-12.39,-10.27,0,*5F
1507176440.65,47840,12.5,73238.5,-2.89,-12.57,-10.41,0,*59
1507176441.93,47841,12.5,73240.8,-2.89,-12.65,-10.75,0,*5E
1507176443.17,47842,12.5,73238.5,-2.91,-12.75,-10.89,0,*56
1507176444.43,47843,12.44,73238.3,-2.89,-12.79,-11.01,0,*53
1507176445.68,47844,12.5,73242.5,-2.89,-12.83,-11.01,0,*51
1507176446.92,47845,12.5,73248.3,-2.91,-12.97,-11.33,0,*5D
1507176448.15,47846,12.44,73252.3,-2.91,-13.15,-11.59,0,*59
1507176449.38,47847,12.5,73260.0,-2.91,-13.15,-11.73,0,*50
1507176450.64,47848,12.5,73254.3,-2.91,-13.33,-11.73,0,*5B
1507176451.87,47849,12.5,73248.5,-2.91,-13.47,-11.73,0,*59
1507176453.13,47850,12.5,73242.5,-2.91,-13.61,-11.77,0,*51
1507176454.37,47851,12.5,73244.0,-2.91,-13.73,-11.77,0,*53
1507176455.63,47852,12.5,73244.5,-2.91,-13.87,-11.73,0,*5F
1507176456.87,47853,12.5,73244.3,-2.91,-14.15,-11.77,0,*56
1507176458.12,47854,12.5,73238.3,-2.91,-14.15,-11.73,0,*55
1507176459.36,47855,12.5,73228.3,-2.95,-14.15,-11.51,0,*50
1507176460.58,47856,12.44,73224.3,-2.91,-14.15,-11.45,0,*52
1507176461.83,47857,12.5,73228.5,-2.91,-14.15,-11.33,0,*52
1507176463.07,47858,12.44,73228.3,-2.91,-14.11,-11.29,0,*52
1507176464.31,47859,12.44,73232.3,-2.95,-13.97,-11.19,0,*5D
1507176465.58,47860,12.44,73234.3,-2.95,-14.01,-11.29,0,*5C
1507176466.82,47861,12.44,73234.0,-2.95,-13.97,-11.15,0,*5A
1507176468.05,47862,12.5,73238.8,-2.91,-13.87,-11.19,0,*50
1507176469.29,47863,12.5,73236.3,-2.95,-13.83,-11.19,0,*51
1507176470.51,47864,12.5,73250.3,-2.91,-13.69,-11.15,0,*5A
1507176471.74,47865,12.5,73242.8,-2.91,-13.55,-11.29,0,*5B
1507176472.97,47866,12.5,73244.5,-2.95,-13.43,-11.33,0,*50
1507176474.21,47867,12.44,73250.8,-2.95,-13.29,-11.41,0,*58
1507176475.44,47868,12.5,73252.5,-2.91,-13.15,-11.59,0,*55
1507176476.67,47869,12.5,73258.0,-2.95,-13.15,-11.77,0,*5C
1507176477.91,47870,12.44,73248.0,-2.91,-13.15,-12.11,0,*53
1507176479.11,47871,12.44,73246.3,-2.95,-13.15,-12.29,0,*5D
1507176480.36,47872,12.5,73244.8,-2.91,-13.23,-12.71,0,*52
1507176481.59,47873,12.5,73240.5,-2.95,-13.15,-12.83,0,*5F
1507176482.8,47874,12.5,73238.5,-2.95,-13.11,-13.11,0,*56
1507176484.03,47875,12.44,73248.8,-2.91,-13.01,-13.43,0,*55
1507176485.27,47876,12.5,73250.8,-2.91,-13.23,-13.61,0,*56
1507176486.51,47877,12.5,73250.8,-2.91,-13.15,-13.97,0,*5B
1507176487.75,47878,12.44,73246.8,-2.95,-13.11,-13.97,0,*54
1507176488.95,47879,12.5,73272.8,-2.91,-13.15,-14.15,0,*58
1507176490.16,47880,12.5,73244.0,-2.95,-13.15,-14.33,0,*5E
1507176491.42,47881,12.5,73240.5,-2.95,-13.29,-14.47,0,*53
1507176492.68,47882,12.5,73252.5,-2.91,-13.33,-14.75,0,*5E
1507176493.92,47883,12.5,73252.8,-2.95,-13.33,-14.89,0,*58
1507176495.16,47884,12.5,73238.3,-2.95,-13.43,-15.01,0,*59
1507176496.39,47885,12.5,73234.5,-2.95,-13.47,-15.01,0,*5C
1507176497.6,47886,12.44,73232.0,-2.95,-13.73,-15.15,0,*5D
1507176498.83,47887,12.5,73234.3,-2.99,-13.93,-15.21,0,*59
1507176500.07,47888,12.44,73224.3,-2.97,-14.15,-15.07,0,*55
1507176501.31,47889,12.44,73204.3,-2.99,-13.87,-14.61,0,*57
1507176502.54,47890,12.44,73196.5,-2.97,-13.93,-14.33,0,*53
1507176503.83,47891,12.5,73212.0,-2.97,-14.01,-14.05,0,*5B
1507176505.07,47892,12.5,73218.8,-2.95,-14.47,-14.15,0,*59
1507176506.32,47893,12.44,73216.0,-2.95,-14.75,-13.87,0,*55
1507176507.56,47894,12.5,73208.8,-2.91,-14.75,-13.55,0,*59
1507176508.81,47895,12.5,73200.3,-2.95,-14.97,-13.33,0,*50